Lexington Weather

Lexington, Massachusetts, USA

56°F
10/22/2020 7:32pm 
  • Lexington Conditions: Mostly cloudy
  • Temperature: 55.8°F / 13.2°CColder 0.3°F than last hour.
  • Dew Point: 54.3°FDecreased 0.2°Fsince last hour.
  • Relative Humidity: 95%Increased 1.0% since last hour.
  • Wind: Wind from NNE NNE Calm, 10-min avg: 1 mph, gust: 4 mph
  • Barometer: 30.22 inRising 0.02  inHg/hr Rising Slowly
  • Visibility: 7 miles
  • Rain Today: 0.00 in
  •   

Regional Weather Roundup
for Boston / Norton, MA

        
000
ASUS41 KBOX 182105
RWRBOX

REGIONAL WEATHER ROUNDUP
NATIONAL WEATHER SERVICE BOSTON/NORTON MA
500 PM EDT SUN OCT 18 2020

NOTE:  "FAIR" INDICATES FEW OR NO CLOUDS BELOW 12,000 FEET WITH NO 
SIGNIFICANT WEATHER AND/OR OBSTRUCTIONS TO VISIBILITY.

MAZALL-182200-
EASTERN MASSACHUSETTS
  
CITY           SKY/WX    TMP DP  RH WIND       PRES   REMARKS
BOSTON         MOCLDY    55  42  61 E16       30.46F                  
BEVERLY        PTCLDY    55  40  56 SE12      30.46F                  
LAWRENCE       PTCLDY    56  38  50 E6        30.48F                  
BEDFORD        PTCLDY    57  39  51 E13       30.44F                  
BLUE HILL        N/A     54  38  54 SE10      30.43F                  
NORWOOD        PTCLDY    60  39  45 E8        30.44F                  
MARSHFIELD     CLEAR     57  43  58 SE8       30.46F                  
PLYMOUTH       CLEAR     56  40  55 E12       30.46F                  
TAUNTON        CLEAR     60  41  49 SE7       30.45F                  
NEW BEDFORD    CLEAR     58  40  51 SE7       30.45F                  
$$

MAZALL-182200-
CAPE COD AND THE ISLANDS
  
CITY           SKY/WX    TMP DP  RH WIND       PRES   REMARKS
FALMOUTH       CLEAR     55  41  58 E8G14     30.46F                  
HYANNIS        CLEAR     56  42  59 E5        30.45F                  
CHATHAM        CLEAR     56  42  59 E8        30.47F                  
PROVINCETOWN   CLEAR     56  42  59 SE6       30.48F                  
NANTUCKET      CLEAR     57  44  62 E10       30.45F                  
MARTHAS VNYRD  CLEAR     57  42  57 E10       30.46S                  
$$
 
MAZALL-182200-
CENTRAL AND WESTERN MASSACHUSETTS
  
CITY           SKY/WX    TMP DP  RH WIND       PRES   REMARKS
WORCESTER      PTCLDY    56  35  45 SE9       30.43F                  
FITCHBURG      MOCLDY    60  35  39 SE8       30.43F                  
ORANGE         MOCLDY    59  36  42 SE12      30.42F                  
SPRINGFIELD    PTSUNNY   60  34  37 S7        30.40F                  
WESTFIELD      PTSUNNY   60  38  43 S9        30.40F                  
NORTH ADAMS    PTSUNNY   58  37  45 SE10G20   30.38F                  
PITTSFIELD     PTSUNNY   57  38  48 SE12G18   30.36F                  
$$
 
RIZALL-182200-
RHODE ISLAND
  
CITY           SKY/WX    TMP DP  RH WIND       PRES   REMARKS
PROVIDENCE     PTCLDY    59  41  51 SE8       30.45F                  
NEWPORT        CLEAR     56  41  57 E6        30.45F                  
BLOCK ISLAND   CLEAR     56  42  59 E9        30.45F                  
SMITHFIELD     CLEAR     57  38  48 S5          N/A                   
WESTERLY       MOSUNNY   58  42  55 SE9       30.45F                  
$$
 
CTZALL-182200-
CONNECTICUT
  
CITY           SKY/WX    TMP DP  RH WIND       PRES   REMARKS
BRADLEY INTL   PTSUNNY   60  39  45 S12       30.41F                  
HARTFORD       MOSUNNY   60  39  45 S13       30.42F                  
BRIDGEPORT     MOSUNNY   61  46  57 SE9       30.41F                  
DANBURY        MOSUNNY   57  43  59 SE10      30.41F                  
GROTON         MOSUNNY   57  44  62 SE9       30.44F                  
NEW HAVEN      SUNNY     62  45  53 SE9       30.41F                  
CHESTER        NOT AVBL                                               
MERIDEN        MOSUNNY   59  41  51 SE7       30.42F                  
WILLIMANTIC    SUNNY     59  37  44 S8        30.43F                  
OXFORD         MOSUNNY   57  43  59 S13       30.42F                  
$$

MEZ002-015-021-024-NHZ003-005-008-011-012-014-VTZ005-008-182200-
NORTHERN NEW ENGLAND
  
CITY           SKY/WX    TMP DP  RH WIND       PRES   REMARKS
PORTLAND ME    MOCLDY    53  39  59 S6        30.48F                  
BANGOR ME      MOCLDY    55  35  47 S6        30.49F                  
CONCORD NH     MOCLDY    57  34  41 SE9G16    30.44F                  
MANCHESTER NH  MOCLDY    58  35  42 SE14      30.43F                  
NASHUA NH      MOCLDY    58  37  45 SE10      30.45F                  
PORTSMOUTH NH  MOCLDY    56  36  47 SE8       30.46                   
JAFFREY NH     MOCLDY    56  33  42 SE3       30.42F                  
KEENE NH       PTCLDY    59  34  39 S8        30.41F                  
BURLINGTON VT  CLOUDY    58  33  39 S8        30.31F                  
MT. WASHINGTON MOCLDY    27  23  86 SE30G40     N/A  WCI  10          
$$

NYZ052-076-182200-
EASTERN NEW YORK
  
CITY           SKY/WX    TMP DP  RH WIND       PRES   REMARKS
ALBANY         PTSUNNY   58  39  49 SE14G24   30.35F                  
NEW YORK CITY  PTSUNNY   63  44  50 SE12      30.38F                  
$$
 
ANZALL-182200-
MARINE OBSERVATIONS
  
STATION/POSITION TIME  TEMP    WIND        PRES    VSBY  WAVE
                       AIR SEA DIR/SP/G                  HT/PER
                 (UTC) (F)     (DEG/KT/KT) (MB)    (MI)  (FT/S)
BOSTON BUOY      2050   56 58  110/ 12/ 14 1030.8F         2/ 3
BUZZARDS BAY     2000          120/ 10/ 11 1032.5F
NANTUCKET SOUND  2050      61   80/ 12/ 14   N/A           1/ 3
MASS BAY-STELLWA 2004   56 58  130/ 10/ 12 1031.8F  1 7/8  1/ 3
ISLE OF SHOALS   NOT AVBL
S OF BLOCK IS    2026      63                N/A           3/ 5
$$

......................KEY.........................
  SKY/WX - SKY CONDITION/PRESENT WEATHER
  TMP    - TEMPERATURE IN FAHRENHEIT
  DWPT   - DEWPOINT IN FAHRENHEIT
  RH     - RELATIVE HUMIDITY IN PERCENT
  WIND   - DIRECTION AND SPEED IN MPH
  PRES   - MEAN SEA LEVEL PRESSURE IN INCHES OF HG
  WCI    - WIND CHILL INDEX
  VSB    - VISIBILITY IN MILES
  HX     - HEAT INDEX
  TC     - TEMPERATURE IN CELSIUS
  VRB    - VARIABLE WIND DIRECTION
  N/A    - NOT AVAILABLE
  
      

Other recent Regional Weather Roundups

Thu Oct 22, 7:05pm

Thu Oct 22, 6:04pm

Thu Oct 22, 5:04pm

Thu Oct 22, 4:05pm

Thu Oct 22, 3:04pm

Thu Oct 22, 2:05pm

Thu Oct 22, 1:04pm

Thu Oct 22, 12:04pm

Thu Oct 22, 11:04am

Thu Oct 22, 10:05am

Thu Oct 22, 9:04am

Thu Oct 22, 8:05am

Thu Oct 22, 7:04am

Thu Oct 22, 6:04am

Thu Oct 22, 5:04am

Thu Oct 22, 4:04am

Thu Oct 22, 3:04am

Thu Oct 22, 2:04am

Thu Oct 22, 1:04am

Thu Oct 22, 12:04am

Wed Oct 21, 11:05pm

Wed Oct 21, 10:04pm

Wed Oct 21, 9:04pm

Wed Oct 21, 8:04pm

Wed Oct 21, 7:04pm

Wed Oct 21, 6:04pm

Wed Oct 21, 5:05pm

Wed Oct 21, 4:04pm

Wed Oct 21, 3:04pm

Wed Oct 21, 2:05pm

Wed Oct 21, 1:04pm

Wed Oct 21, 12:04pm

Wed Oct 21, 11:04am

Wed Oct 21, 10:04am

Wed Oct 21, 9:04am

Wed Oct 21, 8:04am

Wed Oct 21, 7:04am

Wed Oct 21, 6:04am

Wed Oct 21, 5:04am

Wed Oct 21, 4:04am

Wed Oct 21, 3:04am

Wed Oct 21, 2:04am

Wed Oct 21, 1:04am

Wed Oct 21, 12:04am

Tue Oct 20, 11:05pm

Tue Oct 20, 10:04pm

Tue Oct 20, 9:04pm

Tue Oct 20, 8:05pm

Tue Oct 20, 7:04pm

Tue Oct 20, 6:04pm

Tue Oct 20, 5:05pm

Tue Oct 20, 4:04pm

Tue Oct 20, 3:05pm

Tue Oct 20, 2:07pm

Tue Oct 20, 1:04pm

Tue Oct 20, 12:04pm

Tue Oct 20, 11:04am

Tue Oct 20, 10:05am

Tue Oct 20, 9:04am

Tue Oct 20, 8:04am

Tue Oct 20, 7:04am

Tue Oct 20, 6:04am

Tue Oct 20, 5:04am

Tue Oct 20, 4:04am

Tue Oct 20, 3:04am

Tue Oct 20, 2:04am

Tue Oct 20, 1:04am

Tue Oct 20, 12:04am

Mon Oct 19, 11:04pm

Mon Oct 19, 10:04pm

Mon Oct 19, 9:04pm

Mon Oct 19, 8:04pm

Mon Oct 19, 7:04pm

Mon Oct 19, 6:04pm

Mon Oct 19, 5:04pm

Mon Oct 19, 4:04pm

Mon Oct 19, 3:04pm

Mon Oct 19, 2:04pm

Mon Oct 19, 1:05pm

Mon Oct 19, 12:04pm

Mon Oct 19, 11:04am

Mon Oct 19, 10:04am

Mon Oct 19, 9:04am

Mon Oct 19, 8:04am

Mon Oct 19, 7:04am

Mon Oct 19, 6:04am

Mon Oct 19, 5:04am

Mon Oct 19, 4:04am

Mon Oct 19, 3:04am

Mon Oct 19, 2:04am

Mon Oct 19, 1:04am

Mon Oct 19, 12:05am

Sun Oct 18, 11:04pm

Sun Oct 18, 10:04pm

Sun Oct 18, 9:04pm

Sun Oct 18, 8:04pm

Sun Oct 18, 7:05pm

Sun Oct 18, 6:04pm

Sun Oct 18, 4:05pm

Sun Oct 18, 3:04pm

Sun Oct 18, 2:05pm

Sun Oct 18, 1:04pm

Sun Oct 18, 12:04pm

Sun Oct 18, 11:04am

Sun Oct 18, 10:04am

Sun Oct 18, 9:04am

Sun Oct 18, 8:04am

Sun Oct 18, 7:04am

Sun Oct 18, 6:04am

Sun Oct 18, 5:04am

Sun Oct 18, 4:04am

Sun Oct 18, 3:04am

Sun Oct 18, 2:04am

Sun Oct 18, 1:04am

Sun Oct 18, 12:04am

Sat Oct 17, 11:05pm

Sat Oct 17, 10:04pm

Sat Oct 17, 9:04pm

Sat Oct 17, 8:04pm

Sat Oct 17, 7:04pm

Sat Oct 17, 6:04pm

Sat Oct 17, 5:05pm

Sat Oct 17, 4:04pm

Sat Oct 17, 3:04pm

Sat Oct 17, 2:05pm

Sat Oct 17, 1:05pm

Sat Oct 17, 12:04pm

Sat Oct 17, 11:05am

Sat Oct 17, 10:04am

Sat Oct 17, 9:04am

Sat Oct 17, 8:04am

Sat Oct 17, 7:04am

Sat Oct 17, 6:04am

Sat Oct 17, 5:04am

Sat Oct 17, 4:04am

Sat Oct 17, 3:04am

Sat Oct 17, 2:04am

Sat Oct 17, 1:05am

Sat Oct 17, 12:04am

Fri Oct 16, 11:05pm

Fri Oct 16, 10:04pm

Fri Oct 16, 9:05pm

Fri Oct 16, 8:04pm

Fri Oct 16, 7:05pm

Fri Oct 16, 6:04pm

Fri Oct 16, 5:04pm

Fri Oct 16, 4:05pm

Fri Oct 16, 3:04pm

Fri Oct 16, 2:04pm

Fri Oct 16, 1:04pm

Fri Oct 16, 12:04pm

Fri Oct 16, 11:05am

Fri Oct 16, 10:04am

Fri Oct 16, 9:04am

Fri Oct 16, 8:04am

Fri Oct 16, 7:04am

Fri Oct 16, 6:04am

Fri Oct 16, 5:04am

Fri Oct 16, 4:04am

Fri Oct 16, 3:04am

Fri Oct 16, 2:04am

Fri Oct 16, 1:04am

Fri Oct 16, 12:04am

Thu Oct 15, 11:04pm

Thu Oct 15, 10:04pm

Thu Oct 15, 9:05pm

Thu Oct 15, 8:04pm

Meta data:

ID: 1af6c22b-3cec-41cd-8311-c78ffe5668bd
Link: https://api.weather.gov/products/1af6c22b-3cec-41cd-8311-c78ffe5668bd